SCP
0 0 0 0 0 0 0 0 0 0 0 0 0 0 0 0 0 0 0 0 0 0
0 0 0 0 0 0 0 0 0 0 0 0 0 0 0 0 0 0 0 0 0 0
0 0 0 -0 -0 0 0 0 0 0 0 0 0 0 0 0 0 0 0 0 0 0
0 0 0 0 0 0 -0 0 0 0 0 0 0 0 0 0 0 0 0 0 0 0
0 0 -0 -0 -0 -0 -0 0 -0 0 0 0 0 0 0 0 0 0 0 0 0 0
0 0 0 -0 -0 -0 -0 -0 -0 -0 -0 -0 0 0 0 0 0 0 0 0 0 0
-0 0 0 -0 0 0 0 0 0 0 0 0 0 0 0 0 0 0 0 0 0 0
-0 -0 -0 0 0 0 0 0 0 0 0 0 0 0 0 0 0 0 -0 -0 -0 0
-0 -0 -0 -0 0 0 0 0 0 0 0 0 0 0 0 0 0 0 0 0 0 0
-0 -0 -0 -0 0 0 0 0 0 0 0 0 0 0 0 0 0 0 0 0 0 0
-0 -0 -0 -0 -0 0 0 0 0 0 0 0 0 0 0 0 0 0 0 0 0 0
-0 -0 -0 -0 -0 -0 -0 0 0 0 0 0 0 0 0 0 0 0 0 0 0 0
0 -0 -0 -0 -0 0 0 0 0 0 0 0 0 0 0 0 0 0 -0 0 0 0
0 0 0 0 0 0 0 0 0 0 0 0 0 0 0 0 0 0 0 0 0 0
Wind_Speed_500mb
35 28 24 12 36 45 49 40 44 50 52 47 47 45 47 42 34 18 14 8 6 4
49 41 33 44 36 36 51 40 41 30 25 25 32 24 24 19 21 17 22 26 25 23
67 68 58 62 61 63 65 62 52 43 46 38 38 40 35 36 39 35 37 33 31 31
93 86 74 70 72 70 69 65 54 58 61 52 44 50 48 47 44 43 44 43 41 41
101 95 87 84 78 73 76 76 75 71 71 67 64 60 58 57 52 49 47 47 41 43
97 99 98 93 86 81 82 83 79 77 77 75 70 65 61 58 56 53 51 48 45 43
101 97 96 94 88 86 85 84 79 78 76 74 69 64 60 57 54 51 49 49 52 53
99 95 90 88 86 80 80 79 74 72 72 70 67 62 55 53 52 52 51 51 50 49
92 89 86 83 81 77 77 72 67 68 66 65 62 53 51 50 49 48 47 50 53 54
84 84 80 74 70 70 69 64 66 63 59 59 54 47 45 44 49 52 51 51 53 58
77 77 71 68 70 67 62 60 59 57 52 47 46 45 46 46 47 49 49 53 59 63
70 69 66 68 64 59 54 53 53 48 44 45 46 42 44 47 52 54 54 59 64 67
61 60 60 56 52 50 48 47 44 42 43 42 39 43 50 55 55 59 61 61 62 62
55 53 51 48 47 44 43 41 39 40 39 38 39 47 51 54 58 60 58 62 68 69
Wind_Direction_500mb
114 88 108 116 192 168 174 180 188 191 209 215 212 218 217 220 218 187 190 157 160 23
109 109 117 127 136 126 116 133 136 145 139 152 124 117 109 106 85 68 83 76 78 77
102 102 100 108 110 108 107 108 113 108 110 98 105 99 100 93 101 100 90 80 70 64
110 106 109 107 108 106 106 101 101 108 107 107 105 98 98 96 88 81 78 73 65 64
107 109 110 110 108 107 104 103 103 100 98 97 92 88 85 85 85 79 72 66 58 52
103 103 103 103 102 100 98 96 95 94 91 89 86 83 80 76 71 65 58 52 45 39
99 100 100 102 102 100 99 97 93 90 89 85 80 75 71 66 62 56 49 42 34 26
100 100 101 100 96 97 94 91 91 90 86 81 75 68 63 57 52 45 39 34 27 21
101 101 99 95 97 96 92 91 89 84 81 77 70 61 54 48 43 39 33 28 21 13
98 96 96 97 95 90 89 88 84 80 74 70 64 54 49 43 38 32 26 20 14 8
98 97 98 95 90 90 89 83 78 75 71 67 62 51 43 37 32 26 20 13 9 2
96 96 96 91 89 87 85 83 76 72 67 61 54 45 39 32 27 20 16 9 2 357
98 96 91 91 91 87 82 80 74 68 59 52 45 38 32 27 19 15 10 3 356 351
99 96 96 96 91 87 81 75 69 60 54 47 39 35 27 19 15 10 3 356 354 350
Wind_Speed_850mb
35 28 24 12 36 45 49 40 44 50 52 47 47 45 47 42 34 18 14 8 6 4
49 41 33 44 36 36 51 40 41 30 25 25 32 24 24 19 21 17 22 26 25 23
67 68 58 62 61 63 65 62 52 43 46 38 38 40 35 36 39 35 37 33 31 31
93 86 74 70 72 70 69 65 54 58 61 52 44 50 48 47 44 43 44 43 41 41
101 95 87 84 78 73 76 76 75 71 71 67 64 60 58 57 52 49 47 47 41 43
97 99 98 93 86 81 82 83 79 77 77 75 70 65 61 58 56 53 51 48 45 43
101 97 96 94 88 86 85 84 79 78 76 74 69 64 60 57 54 51 49 49 52 53
99 95 90 88 86 80 80 79 74 72 72 70 67 62 55 53 52 52 51 51 50 49
92 89 86 83 81 77 77 72 67 68 66 65 62 53 51 50 49 48 47 50 53 54
84 84 80 74 70 70 69 64 66 63 59 59 54 47 45 44 49 52 51 51 53 58
77 77 71 68 70 67 62 60 59 57 52 47 46 45 46 46 47 49 49 53 59 63
70 69 66 68 64 59 54 53 53 48 44 45 46 42 44 47 52 54 54 59 64 67
61 60 60 56 52 50 48 47 44 42 43 42 39 43 50 55 55 59 61 61 62 62
55 53 51 48 47 44 43 41 39 40 39 38 39 47 51 54 58 60 58 62 68 69
Wind_Direction_850mb
114 88 108 116 192 168 174 180 188 191 209 215 212 218 217 220 218 187 190 157 160 23
109 109 117 127 136 126 116 133 136 145 139 152 124 117 109 106 85 68 83 76 78 77
102 102 100 108 110 108 107 108 113 108 110 98 105 99 100 93 101 100 90 80 70 64
110 106 109 107 108 106 106 101 101 108 107 107 105 98 98 96 88 81 78 73 65 64
107 109 110 110 108 107 104 103 103 100 98 97 92 88 85 85 85 79 72 66 58 52
103 103 103 103 102 100 98 96 95 94 91 89 86 83 80 76 71 65 58 52 45 39
99 100 100 102 102 100 99 97 93 90 89 85 80 75 71 66 62 56 49 42 34 26
100 100 101 100 96 97 94 91 91 90 86 81 75 68 63 57 52 45 39 34 27 21
101 101 99 95 97 96 92 91 89 84 81 77 70 61 54 48 43 39 33 28 21 13
98 96 96 97 95 90 89 88 84 80 74 70 64 54 49 43 38 32 26 20 14 8
98 97 98 95 90 90 89 83 78 75 71 67 62 51 43 37 32 26 20 13 9 2
96 96 96 91 89 87 85 83 76 72 67 61 54 45 39 32 27 20 16 9 2 357
98 96 91 91 91 87 82 80 74 68 59 52 45 38 32 27 19 15 10 3 356 351
99 96 96 96 91 87 81 75 69 60 54 47 39 35 27 19 15 10 3 356 354 350